Regional Weather Roundup
Issued by NWS Charleston, SC

Current Version | Previous Version | Text Only | Print | Product List | Glossary Off
Versions: 1 2 3 4 5 6 7 8 9 10 11 12 13 14 15 16 17 18 19 20 21 22 23 24 25 26 27 28 29 30 31 32 33 34 35 36 37 38 39 40 41 42 43 44 45 46 47 48 49 50

000
ASUS42 KCHS 220712
RWRCHS

Regional Weather Roundup
National Weather Service Charleston SC
200 AM EST THU FEB 22 2018

NOTE: "fair" indicates few or no clouds below 12,000 feet with no
significant weather and/or obstructions to visibility.

Not all stations are quality controlled. Use data with caution,
especially dewpoint observations.

SCZ027-030-031-034>040-042>050-220800-
...Southeast South Carolina...

CITY           SKY/WX    TMP DP  RH WIND       PRES   REMARKS
N Charleston   FAIR      67  65  93 S6        30.43S
Waterfront Prk   N/A     66  65  96 S7        30.29S
Mount Pleasant FAIR      66  66 100 SE3       30.44S FOG
Johns Island   FAIR      66  66 100 S6        30.43F
Pinopolis        N/A     64  64 100 CALM      30.35R
Moncks Corner  FOG       61  59  94 CALM      30.43S VSB 1/4
Summerville    FOG       61  61 100 CALM      30.44S VSB 1/2
Beaufort MCAS  FAIR      68  68 100 S3        30.42S
Beaufort Arpt  FAIR      66  64  94 S5        30.42S FOG
Hilton Head Is FAIR      68  66  94 S7        30.43S
Walterboro     FOG       61  61 100 CALM      30.44S VSB 1/4
Allendale      CLOUDY    68  68 100 S6        30.42S

...Southern Midlands and Pee Dee...

CITY           SKY/WX    TMP DP  RH WIND       PRES   REMARKS
Georgetown     FAIR      64  63  94 SE3       30.45S
Kingstree      FOG       59  59 100 CALM      30.44S VSB<1/4
Orangeburg     CLOUDY    67  65  93 S7        30.43S
Barnwell         N/A     70  68  94 CALM      30.43S
Aiken          CLOUDY    66  66 100 S9        30.46S
Manning        FAIR      61  50  67 MISG      30.44S
Columbia       CLOUDY    69  67  93 S7        30.42R
Sumter         FOG       64  64 100 CALM      30.41S VSB 3/8
Florence       FOG       63  63 100 SE5       30.44S VSB 1/4
Myrtle Beach   FAIR      67  65  93 S8        30.45F
N Myrtle Beach FAIR      65  64  97 S9G18     30.44F

$$

GAZ063-065-086>088-099>101-113>116-118-119-134>141-150-220800-
...Southeast Georgia...

CITY           SKY/WX    TMP DP  RH WIND       PRES   REMARKS
Savannah Arpt  FAIR      67  66  97 S8        30.42S
Hunter AAF     FAIR      68  65  93 SE3       30.39S
Fort Stewart   FAIR      65  64  99 CALM      30.39F VSB 3/4
Statesboro     CLOUDY    68  32  26 S6        30.42S
Sylvania       CLOUDY    68  68 100 S3        30.43S FOG
Claxton        PTSUNNY   69  68  96 CALM      30.41F FOG

...CSRA, Central and far Southeast Georgia...

CITY           SKY/WX    TMP DP  RH WIND       PRES   REMARKS
Thomson        FAIR      66  64  91 SW6       30.46S
Augusta-Bush   CLOUDY    70  67  90 S7        30.41R
Augusta-Daniel CLOUDY    70  66  87 S7        30.42S
Swainsboro     CLOUDY    70  68  94 S6        30.43R
Vidalia        CLOUDY    70  68  94 S8        30.41S
Eastman        CLOUDY    70  61  71 S8        30.43S
Hazlehurst     FAIR      69  69 100 S5        30.39F
Alma           CLOUDY    70  67  90 S10       30.40S
Waycross       CLOUDY    70  67  90 S8        30.40S
Jesup          FOG       66  63  88 CALM      30.41F VSB 1/4
Baxley         CLOUDY    66  66 100 S6        30.40F
Brunswick      FAIR      68  64  88 SE7       30.42S
Saint Simons   MOCLDY    68  66  93 SE9       30.41F

$$

SCZ027-028-034-036>038-045-046-048>050-GAZ119-141-220800-
...Lake and Supplemental Coastal Observations...

STATION/POSITION TIME  TEMP    WIND        PRES    WAVE   SWELL
                       AIR SEA DIR/SP/G            HT/PER HT/PER/DIR
                 (UTC) (F)     (DEG/KT/KT) (MB)    (FT/S) (FT/S/D)
Winyah Bay       0545   67     180/  6     1031.0
Lake Murray      NOT AVBL
ACE Basin NERRS  0545   67     140/  3     1030.0
Fort Pulaski     0648          150/  5/  7   N/A
Sapelo Island    0600   69     150/  9     1030.0

$$

ANZ835-935-AMZ111-154-330-350-352-354-370-450-454-472-220800-
...C-MAN and Buoy Observations...

STATION/POSITION TIME  TEMP    WIND        PRES    WAVE   SWELL
                       AIR SEA DIR/SP/G            HT/PER HT/PER/DIR
                 (UTC) (F)     (DEG/KT/KT) (MB)    (FT/S) (FT/S/D)
Buoy 41004       0650   71 69  160/ 10/ 12 1030.6F   4/ 8   3/120/ 8
Buoy 41008       0650   62 58  140/  6/  6 1029.7F   3/ 7   3/110/ 7
Folly Beach CMAN NOT AVBL
Capers Nearshore 0608   59 59  150/  6/  8 1030.4
Fripp Nearshore  0608   60 59  150/  8/ 10 1028.9F


STATION/POSITION TIME  TEMP    WIND        PRES    WAVE   SWELL
                       AIR SEA DIR/SP/G            HT/PER HT/PER/DIR
                 (UTC) (F)     (DEG/KT/KT) (MB)    (FT/S) (FT/S/D)
5E St. Marys GA  0700      63                N/A     3/ 6   2/ 90/13
Frying Pan Buoy  0650   71 70  180/ 12/ 14 1031.4S   4/ 7   3/130/ 7
Buoy 41025       0650   72 70  200/ 16/ 17 1032.0F   5/13   3/130/13
Cape Lookout NC  NOT AVBL
Buoy 41002       0650   72 74  140/ 10/ 14 1032.3F   6/ 8   5/130/ 8
Buoy 41010       NOT AVBL
St Augustine FL  0700   68 66  120/  7/  7 1029.6F


$$




USA.gov is the U.S. government's official web portal to all federal, state and local government web resources and services.